TimeMDT,TemperatureF,Dew PointF,Humidity,Sea Level PressureIn,VisibilityMPH,Wind Direction,Wind SpeedMPH,Gust SpeedMPH,PrecipitationIn,Events,Conditions,WindDirDegrees,DateUTC
12:53 AM,61.0,53.1,75,29.83,-9999.0,NW,13.8,-,N/A,,Partly Cloudy,310,2013-09-09 06:53:00
1:53 AM,59.0,53.1,81,29.85,-9999.0,WNW,15.0,-,N/A,,Mostly Cloudy,290,2013-09-09 07:53:00
2:53 AM,59.0,52.0,78,29.86,-9999.0,WNW,8.1,-,N/A,,Partly Cloudy,300,2013-09-09 08:53:00
3:53 AM,57.9,51.1,78,29.87,-9999.0,NNW,4.6,-,N/A,,Mostly Cloudy,330,2013-09-09 09:53:00
4:53 AM,57.0,51.1,81,29.89,-9999.0,SE,4.6,-,N/A,,Scattered Clouds,130,2013-09-09 10:53:00
4:56 AM,59.0,50.0,72,29.94,10.0,Variable,2.3,-,N/A,,Clear,0,2013-09-09 10:56:00
5:53 AM,53.1,48.9,86,29.90,-9999.0,Calm,Calm,-,N/A,,Clear,0,2013-09-09 11:53:00
5:55 AM,59.0,48.2,67,29.94,10.0,WSW,2.3,-,N/A,,Scattered Clouds,250,2013-09-09 11:55:00
6:53 AM,53.1,50.0,89,29.91,-9999.0,SW,3.5,-,N/A,,Clear,230,2013-09-09 12:53:00
6:55 AM,57.2,48.2,72,29.94,25.0,SSW,2.3,-,N/A,,Scattered Clouds,210,2013-09-09 12:55:00
7:50 AM,55.4,50.0,82,29.96,25.0,SE,1.2,-,N/A,,Scattered Clouds,140,2013-09-09 13:50:00
7:53 AM,55.0,51.1,86,29.92,-9999.0,Calm,Calm,-,N/A,,Clear,0,2013-09-09 13:53:00
8:50 AM,62.6,50.0,63,29.97,25.0,NW,2.3,-,N/A,,Partly Cloudy,310,2013-09-09 14:50:00
8:53 AM,63.0,50.0,63,29.92,-9999.0,NNW,4.6,-,N/A,,Clear,330,2013-09-09 14:53:00
9:53 AM,66.9,50.0,54,29.91,-9999.0,North,8.1,-,N/A,,Clear,350,2013-09-09 15:53:00
9:56 AM,66.2,48.2,52,29.98,25.0,NNW,8.1,-,N/A,,Scattered Clouds,340,2013-09-09 15:56:00
10:53 AM,68.0,46.0,45,29.92,-9999.0,NNW,8.1,17.3,N/A,,Clear,330,2013-09-09 16:53:00
10:58 AM,66.2,44.6,46,29.99,25.0,NW,6.9,-,N/A,,Scattered Clouds,320,2013-09-09 16:58:00
11:53 AM,69.1,45.0,42,29.91,10.0,North,8.1,-,N/A,,Partly Cloudy,360,2013-09-09 17:53:00
12:53 PM,71.1,44.1,38,29.91,10.0,WNW,5.8,-,N/A,,Mostly Cloudy,290,2013-09-09 18:53:00
1:53 PM,73.0,44.1,35,29.90,10.0,NNW,9.2,-,N/A,,Clear,340,2013-09-09 19:53:00
2:53 PM,73.0,44.1,35,29.89,10.0,WNW,4.6,-,N/A,,Mostly Cloudy,290,2013-09-09 20:53:00
3:53 PM,75.9,43.0,31,29.88,10.0,North,11.5,17.3,N/A,,Mostly Cloudy,350,2013-09-09 21:53:00
4:53 PM,75.9,42.1,30,29.88,10.0,NNW,9.2,-,N/A,,Partly Cloudy,340,2013-09-09 22:53:00
5:53 PM,75.9,43.0,31,29.90,10.0,North,8.1,-,N/A,,Overcast,10,2013-09-09 23:53:00
6:53 PM,70.0,45.0,41,29.93,10.0,NNW,8.1,-,N/A,,Clear,340,2013-09-10 00:53:00
7:53 PM,62.1,48.0,60,29.96,10.0,WNW,4.6,-,N/A,,Clear,290,2013-09-10 01:53:00
8:43 PM,59.0,48.2,67,30.03,10.0,South,3.5,-,N/A,,Partly Cloudy,170,2013-09-10 02:43:00
8:53 PM,57.9,48.9,72,29.98,10.0,SSW,4.6,-,N/A,,Partly Cloudy,200,2013-09-10 02:53:00
9:53 PM,55.0,48.9,80,29.98,10.0,SSW,4.6,-,N/A,,Clear,210,2013-09-10 03:53:00
10:53 PM,55.9,48.9,77,30.00,10.0,Calm,Calm,-,N/A,,Overcast,0,2013-09-10 04:53:00
11:53 PM,57.0,48.0,72,30.00,10.0,Calm,Calm,-,N/A,,Clear,0,2013-09-10 05:53:00